Regional Weather Roundup
Issued by NWS

Home | Current Version | Previous Version | Text Only | Print | Product List | Glossary Off
Versions: 1 2 3 4 5 6 7 8 9 10 11 12 13 14 15 16 17 18 19 20 21 22 23 24 25 26 27 28 29 30 31 32 33 34 35 36 37 38 39 40 41 42 43 44 45 46 47 48 49 50

000
ASUS43 KBIS 222210
RWRND

NORTH DAKOTA REGIONAL WEATHER ROUNDUP
NATIONAL WEATHER SERVICE BISMARCK ND
500 PM CDT FRI JUL 22 2016

NOTE: "FAIR" INDICATES FEW OR NO CLOUDS BELOW 12,000 FEET WITH NO
SIGNIFICANT WEATHER AND/OR OBSTRUCTIONS TO VISIBILITY.


NDZ001>003-009>011-017-222300-
NORTHWEST NORTH DAKOTA

CITY           SKY/WX    TMP DP  RH WIND       PRES   REMARKS
WILLISTON      CLOUDY    94  56  27 SE12G20   29.95F HX  92
MINOT          MOSUNNY   89  62  40 E13       30.00F
MINOT AFB      PTSUNNY   83  60  45 E15       30.00F
$$

NDZ018>021-031>035-040>046-222300-
SOUTHWEST NORTH DAKOTA

CITY           SKY/WX    TMP DP  RH WIND       PRES   REMARKS
BISMARCK       MOSUNNY   88  76  67 E16       29.97F HX  99
DICKINSON      MOSUNNY   88  71  57 E22G30    29.93F HX  94
GARRISON         N/A     85  64  49 E18G24    29.97F
HETTINGER ARPT MOSUNNY   97  73  45 E21       29.93F THUNDER HX 107
$$

NDZ004>008-012>016-024-026-027-054-222300-
NORTHEAST NORTH DAKOTA

CITY           SKY/WX    TMP DP  RH WIND       PRES   REMARKS
GRAND FORKS    CLOUDY    86  62  44 N9        30.01F
GRND FRKS AFB  PTSUNNY   84  63  50 E9        30.02F
DEVILS LAKE    MOSUNNY   81  64  56 NE6       30.03F
$$

NDZ022-023-025-028>030-036>039-047>053-222300-
SOUTHEAST NORTH DAKOTA

CITY           SKY/WX    TMP DP  RH WIND       PRES   REMARKS
FARGO          CLOUDY    85  69  58 NE12      30.00R
JAMESTOWN      CLOUDY    83  72  69 E12G18    30.01S
$$




USA.gov is the U.S. government's official web portal to all federal, state and local government web resources and services.